Capo Mele, Italy

3:56 PM CEST on August 18, 2017 (GMT +0200)
Capo Mele

Weather History for LIMU - February, 2014

Change the Weather History Date:

Thursday, February 6, 2014

  Actual Average Record
Temperature  
Mean Temperature 48 °F -  
Max Temperature 54 °F 53 °F 63 °F (2017)
Min Temperature 41 °F 44 °F 28 °F (2012)
Degree Days  
Heating Degree Days 18    
Moisture  
Dew Point 40 °F    
Average Humidity 65    
Maximum Humidity 82    
Minimum Humidity 43    
Precipitation  
Precipitation 0.00 in 0.09 in - ()
Sea Level Pressure  
Sea Level Pressure 29.91 in    
Wind  
Wind Speed 8 mph ()    
Max Wind Speed 20 mph    
Max Gust Speed -    
Visibility 9.8 miles    
Events      
Averages and records for this station are not official NWS values.
T = Trace of Precipitation, MM = Missing Value Source: Averaged Metar Reports

Daily Weather History Graph

Daily Weather History Graph

Search for Another Location

Airport or City:

Trip Planner

Search our weather history database for the weather conditions in past years. The results will help you decide how hot, cold, wet, or windy it might be!

Date:

Astronomy

Feb. 06, 2014 Rise Set
Actual Time 7:38 AM CET 5:44 PM CET
Civil Twilight 7:08 AM CET 6:14 PM CET
Nautical Twilight 6:34 AM CET 6:48 PM CET
Astronomical Twilight 6:00 AM CET 7:22 PM CET
Moon 11:06 AM CET (2/6) 12:37 AM CET (2/6)
Length of Visible Light 11h 06m
Length of Day
10h 05m
Waxing Crescent, 46% of the Moon is Illuminated
Feb 6
Waxing Crescent
Feb 6
First Quarter
Feb 15
Full
Feb 22
Last Quarter
Mar 1
New

Hourly Weather History & Observations

Time (CET) Temp. Windchill Dew Point Humidity Pressure Visibility Wind Dir Wind Speed Gust Speed Precip Events Conditions
12:00 AM 47 °F - 35 °F 52% 29.73 in 12 mi NNE 8.1 mph - -   Partly Cloudy
12:55 AM 46.4 °F 41.1 °F 33.8 °F 62% 29.74 in - NNE 11.5 mph - N/A   Clear
1:00 AM 46 °F - 34 °F 52% 29.76 in 12 mi NNE 11.5 mph - -   Partly Cloudy
1:55 AM 46.4 °F 41.1 °F 32.0 °F 57% 29.77 in - North 11.5 mph - N/A   Clear
2:00 AM 46 °F - 32 °F 46% 29.79 in 12 mi North 11.5 mph - -  
2:55 AM 46.4 °F 43.5 °F 32.0 °F 57% 29.77 in - North 5.8 mph - N/A   Clear
3:00 AM 46 °F - 33 °F 48% 29.80 in 12 mi North 5.8 mph - -  
3:55 AM 48.2 °F - 35.6 °F 62% 29.80 in - West 8.1 mph - N/A   Clear
4:00 AM 47 °F - 36 °F 54% 29.82 in 12 mi West 8.1 mph - -  
4:55 AM 46.4 °F 44.3 °F 35.6 °F 66% 29.83 in - WNW 4.6 mph - N/A   Clear
5:00 AM 47 °F - 36 °F 54% 29.85 in 12 mi WNW 4.6 mph - -  
5:55 AM 46.4 °F 43.5 °F 37.4 °F 71% 29.86 in - West 5.8 mph - N/A   Clear
6:00 AM 47 °F - 37 °F 59% 29.88 in 12 mi West 5.8 mph - -  
6:55 AM 46.4 °F 43.5 °F 37.4 °F 71% 29.86 in - West 5.8 mph - N/A   Clear
7:00 AM 47 °F - 37 °F 58% 29.90 in 12 mi West 5.8 mph - -  
7:55 AM 48.2 °F - 37.4 °F 66% 29.89 in - West 4.6 mph - N/A   Clear
8:00 AM 47 °F - 38 °F 62% 29.92 in 12 mi West 4.6 mph - -  
8:55 AM 48.2 °F - 37.4 °F 66% 29.89 in - North 4.6 mph - N/A   Clear
9:00 AM 49 °F - 38 °F 55% 29.93 in 31 mi North 4.6 mph - -  
9:55 AM 51.8 °F - 35.6 °F 54% 29.92 in - SW 9.2 mph - N/A   Clear
10:00 AM 51 °F - 35 °F 43% 29.94 in 31 mi SW 9.2 mph - -  
10:55 AM 50.0 °F - 41.0 °F 71% 29.92 in - SW 12.7 mph - N/A   Clear
11:00 AM 51 °F - 40 °F 56% 29.95 in 31 mi SW 12.7 mph - -  
11:55 AM 53.6 °F - 42.8 °F 67% 29.95 in - SW 16.1 mph - N/A   Clear
12:00 PM 53 °F - 43 °F 61% 29.97 in 31 mi SW 16.1 mph - -   Clear
12:55 PM 53.6 °F - 44.6 °F 72% 29.95 in 6.2 mi SW 19.6 mph - N/A   Partly Cloudy
1:00 PM 53 °F - 44 °F 63% 29.97 in 31 mi SW 19.6 mph - -   Scattered Clouds
1:55 PM 51.8 °F - 44.6 °F 76% 29.95 in 6.2 mi SSW 18.4 mph - N/A   Partly Cloudy
2:00 PM 53 °F - 44 °F 62% 29.96 in 12 mi SSW 18.4 mph - -   Scattered Clouds
2:55 PM 51.8 °F - 42.8 °F 71% 29.95 in 6.2 mi SSW 15.0 mph - N/A   Mostly Cloudy
3:00 PM 52 °F - 43 °F 63% 29.96 in 12 mi SSW 15.0 mph - -   Mostly Cloudy
3:55 PM 51.8 °F - 42.8 °F 71% 29.95 in 6.2 mi South 11.5 mph - N/A   Scattered Clouds
4:00 PM 51 °F - 43 °F 66% 29.96 in 12 mi South 11.5 mph - -   Partly Cloudy
4:55 PM 50.0 °F - 42.8 °F 76% 29.95 in 6.2 mi South 5.8 mph - N/A   Scattered Clouds
5:00 PM 50 °F - 42 °F 67% 29.97 in 12 mi South 5.8 mph - -   Partly Cloudy
5:55 PM 50.0 °F - 42.8 °F 76% 29.95 in 6.2 mi SSW 8.1 mph - N/A   Mostly Cloudy
6:00 PM 50 °F - 43 °F 69% 29.97 in 12 mi SSW 8.1 mph - -   Mostly Cloudy
6:55 PM 50.0 °F - 42.8 °F 76% 29.95 in 6.2 mi SSW 11.5 mph - N/A   Mostly Cloudy
7:00 PM 50 °F - 43 °F 70% 29.98 in 12 mi SSW 11.5 mph - -   Mostly Cloudy
7:55 PM 50.0 °F - 44.6 °F 82% 29.95 in 6.2 mi WSW 8.1 mph - N/A   Scattered Clouds
8:00 PM 50 °F - 44 °F 72% 29.99 in 12 mi WSW 8.1 mph - -   Partly Cloudy
8:55 PM 48.2 °F - 41.0 °F 76% 29.98 in 6.2 mi SW 6.9 mph - N/A   Scattered Clouds
9:00 PM 48 °F - 41 °F 68% 29.99 in 12 mi SW 6.9 mph - -   Partly Cloudy
9:55 PM 48.2 °F - 41.0 °F 76% 29.98 in 6.2 mi SSW 5.8 mph - N/A   Partly Cloudy
10:00 PM 48 °F - 41 °F 69% 30.00 in 12 mi SSW 5.8 mph - -   Scattered Clouds
10:55 PM 48.2 °F - 42.8 °F 82% 29.98 in 6.2 mi South 5.8 mph - N/A   Partly Cloudy
11:00 PM 49 °F - 42 °F 69% 30.00 in 12 mi South 5.8 mph - -   Scattered Clouds
11:55 PM 50.0 °F - 42.8 °F 76% 29.98 in 6.2 mi South 6.9 mph - N/A   Scattered Clouds